This is the latest recevied weather packets stored in our database for station/object G1YBJ-13. If no packets are shown the sender has not sent any weather packets the latest 10 day(s).
| Time | Temp. | Humidity | Pressure | Rain* | Wind** | Luminosity | Snow |
|---|---|---|---|---|---|---|---|
| 1777167317 | 7.22° C | 84% | 1025.2 hPa | - | - | - | - |
| 1777166416 | 7.22° C | 86% | 1025.2 hPa | - | - | - | - |
| 1777165514 | 7.22° C | 86% | 1025.1 hPa | - | - | - | - |
| 1777164613 | 7.22° C | 83% | 1025.1 hPa | - | - | - | - |
| 1777163712 | 7.22° C | 84% | 1025.1 hPa | - | - | - | - |
| 1777162810 | 7.22° C | 82% | 1024.9 hPa | - | - | - | - |
| 1777161910 | 7.22° C | 86% | 1024.8 hPa | - | - | - | - |
| 1777161008 | 7.22° C | 83% | 1024.6 hPa | - | - | - | - |
| 1777160106 | 7.78° C | 83% | 1024.6 hPa | - | - | - | - |
| 1777159204 | 7.22° C | 85% | 1024.5 hPa | - | - | - | - |
| 1777158303 | 7.78° C | 85% | 1024.4 hPa | - | - | - | - |
| 1777157402 | 7.78° C | 82% | 1024.2 hPa | - | - | - | - |
| 1777156502 | 8.33° C | 84% | 1024.1 hPa | - | - | - | - |
| 1777155601 | 8.89° C | 79% | 1024.1 hPa | - | - | - | - |
| 1777154700 | 8.89° C | 77% | 1023.9 hPa | - | - | - | - |
| 1777153799 | 9.44° C | 79% | 1023.8 hPa | - | - | - | - |
| 1777152898 | 9.44° C | 80% | 1023.7 hPa | - | - | - | - |
| 1777151997 | 9.44° C | 80% | 1023.6 hPa | - | - | - | - |
| 1777151095 | 10° C | 81% | 1023.5 hPa | - | - | - | - |
| 1777150194 | 10.56° C | 78% | 1023.5 hPa | - | - | - | - |
| 1777149293 | 10.56° C | 75% | 1023.4 hPa | - | - | - | - |
| 1777148393 | 11.11° C | 74% | 1023.3 hPa | - | - | - | - |
| 1777147491 | 11.67° C | 71% | 1023.1 hPa | - | - | - | - |
| 1777146590 | 12.22° C | 73% | 1022.9 hPa | - | - | - | - |
| 1777145688 | 12.78° C | 69% | 1022.6 hPa | - | - | - | - |
* Rain since midnight (hover to see other rain measurements)
** Current wind speed in m/s (hover to see current wind gust speed)